Location: La Trinit�
(48.1620°N, 3.4512°W)
Time: 18:43:49
(UTC+00:00)

Terra - Pass Details

Date: 08 May 2021
Orbit: 701 x 703 km, 98.2° (Epoch: 16 June)

Event Time Altitude Azimuth Distance (km) Brightness Sun altitude
Exits shadow 21:02:06 15° 112° (ESE) 1,836 3.4 -12.2°
Maximum altitude 21:05:02 27° 64° (ENE) 1,332 3.1 -12.6°
Drops below altitude 10° 21:09:02 10° 7° (N) 2,183 4.9 -13.1°
Sets 21:11:34 0° 356° (N) 3,106 6.0 -13.3°
